Regional Weather Roundup
Issued by NWS

Home | Current Version | Previous Version | Text Only | Print | Product List | Glossary On
Versions: 1 2 3 4 5 6 7 8 9 10 11 12 13 14 15 16 17 18 19 20 21 22 23 24 25 26 27 28 29 30 31 32 33 34 35 36 37 38 39
000
ASUS45 KBOU 270707
RWRCO

WEATHER ROUNDUP FOR COLORADO
NATIONAL WEATHER SERVICE DENVER/BOULDER CO
1200 AM MST SAT DEC 27 2014

NOTE: "FAIR" INDICATES FEW OR NO CLOUDS BELOW 12000 FEET WITH NO
SIGNIFICANT WEATHER AND/OR OBSTRUCTIONS TO VISIBILITY.

COZ001>005-013-030-031-270800-
...NORTHWEST COLORADO...

CITY           SKY/WX    TMP DP  RH WIND       PRES   REMARKS
CRAIG          CLOUDY     5   1  83 W5        30.09R WCI  -4
HAYDEN         MOCLDY     9   5  85 CALM      30.06R
MEEKER         CLOUDY     8   4  83 N3        30.09R
MOUNT WERNER   NOT AVBL
STEAMBOAT SPGS CLOUDY    10   7  89 CALM      30.05R
WALDEN         CLOUDY     1  -4  78 CALM      29.96S
$$

COZ006>008-011-270800-
...WEST CENTRAL VALLEYS...

CITY           SKY/WX    TMP DP  RH WIND       PRES   REMARKS
GRAND JUNCTION PTCLDY    12   6  77 E3        30.13R
MONTROSE       CLOUDY    17  15  92 SE5       30.11R WCI  10
EAGLE          CLOUDY    16  12  86 W3        30.07R
RIFLE          PTCLDY     9   3  77 CALM      30.12R
DELTA          PTCLDY    22  13  66 CALM      30.10S
NUCLA          PTCLDY    14  10  85 E6        30.12S WCI   5
$$

COZ017>023-064>068-270800-
...SOUTHWEST COLORADO...

CITY           SKY/WX    TMP DP  RH WIND       PRES   REMARKS
DURANGO        PTCLDY     8   6  92 N8        30.01R WCI  -4
CORTEZ         CLEAR     11   8  88 NE7       30.06R WCI   0
PAGOSA SPRINGS LGT SNOW  16  15  95 CALM      29.98S
TELLURIDE      PTCLDY     7   4  89 SE3       29.95F
WOLF CREEK PAS CLOUDY     0  -2  92 MISG      29.83S
$$

COZ009-010-012-014-032>034-037-058>063-270800-
...CENTRAL COLORADO...

CITY           SKY/WX    TMP DP  RH WIND       PRES   REMARKS
ASPEN          FLURRIES   8   6  92 NW3       29.98R
BUENA VISTA    LGT SNOW   5   1  83 W3        29.98S
COPPER MTN     LGT SNOW   1  -6  71 W17       29.79S WCI -19
BERTHOUD PASS  CLOUDY    -8 -13  77 MISG      29.75R
COTTONWOOD PAS LGT SNOW   5   1  85 CALM      29.88S
GUNNISON       PTCLDY    -2 -11  65 CALM      30.01S
KREMMLING      LGT SNOW  10   5  79 E3        30.01S
LEADVILLE      MOCLDY    -3  -9  75 NE6       29.86R WCI -15
MONARCH PASS   CLOUDY     0  -4  85 MISG      29.90S
SALIDA         CLOUDY     9   4  82 CALM      30.08R
SUNLIGHT       CLOUDY   N/A N/A N/A CALM      29.89S
WILKERSON PASS MOCLDY   N/A N/A N/A W3        29.83S
$$

COZ069>075-270800-
...SAN LUIS VALLEY/SANGRE DE CRISTO MOUNTAINS...

CITY           SKY/WX    TMP DP  RH WIND       PRES   REMARKS
ALAMOSA        CLOUDY    10   5  80 E6        29.97R WCI   0
LA VETA PASS   NOT AVBL
SAGUACHE       CLOUDY     7   1  78 NW15      29.97S WCI -11
$$

COZ035-036-038>040-270800-
...NORTHERN COLORADO FRONT RANGE...

CITY           SKY/WX    TMP DP  RH WIND       PRES   REMARKS
DENVER INTL AP PTCLDY     9   6  88 SW8       30.08S WCI  -3
DMNS CITY PARK   N/A     12  10  92 S3        30.10S
AURORA         PTCLDY     4   1  88 S7        30.08S WCI  -8
FRONT RANGE AP PTCLDY    10   9  92 SW8       30.08S WCI  -1
ERIE MUNI ARPT   N/A      3   0  88 S3        30.10F
BOULDER MUN AP PTCLDY    10   9  92 S5        30.09S WCI   2
CENTENNIAL     PTCLDY     8   6  92 S5        30.06S WCI   0
BROOMFIELD     PTCLDY     9   5  85 SW5       30.07F WCI   0
FORT COLLINS   MOCLDY    14  12  92 S6        30.11S WCI   5
LONGMONT       SNOW       6   3  86 CALM      30.12F VSB 1/4
$$

COZ041-046-047-076>085-087-088-270800-
...PIKES PEAK/PALMER DIVIDE AND SOUTHERN FOOTHILLS...

CITY           SKY/WX    TMP DP  RH WIND       PRES   REMARKS
COLO. SPRINGS  LGT SNOW  14  11  87 S7        30.06S FOG     WCI   4
A. F. ACADEMY  CLOUDY    12   7  79 N5        30.03S WCI   4
ELLICOTT       NOT AVBL
FALCON         FLURRIES  12  11  94 SW8       30.02S WCI   1
FORT CARSON    CLOUDY    15  12  90 S7        30.06S WCI   5
LIMON          PTCLDY     0  -3  87 NW5       30.08F WCI -10
MONUMENT HILL  MOCLDY     5   1  85 W5        29.99S WCI  -4
TRINIDAD       FLURRIES  14  11  87 W3        30.05F
$$

COZ042>045-048>051-090-091-270800-
...NORTHEAST COLORADO...

CITY           SKY/WX    TMP DP  RH WIND       PRES   REMARKS
GREELEY ARPT   MOCLDY    16   9  73 SW3       30.11S
AKRON          CLOUDY     9   7  92 W10       30.10S WCI  -5
BURLINGTON     CLEAR      6   2  83 NW12      30.12F WCI  -9
WRAY           FLURRIES  13  11  92 W8        30.16S WCI   1
STERLING       FLURRIES  10   9  92 W8        30.13S WCI  -1
HOLYOKE        LGT SNOW  21  18  86 W9        30.14F WCI  11
FORT MORGAN    MOCLDY    10   7  91 W3        30.13S
$$

COZ086-089-092>099-270800-
...SOUTHEAST COLORADO...

CITY           SKY/WX    TMP DP  RH WIND       PRES   REMARKS
PUEBLO         CLOUDY    18  14  84 S3        30.13S
LA JUNTA       PTCLDY    10   6  84 W10       30.14F WCI  -4
LAMAR          CLEAR      7   5  91 SW6       30.15S WCI  -3
SPRINGFIELD      N/A     12   9  87 NW10      30.10R WCI  -1
$$


USA.gov is the U.S. government's official web portal to all federal, state and local government web resources and services.